Location: Gebenbach
(49.5378°N, 11.8735°E)
Time: 11:52:21
(UTC+00:00)

SAR-Lupe-1 - Pass Details

Date: 29 October 2020
Orbit: 480 x 485 km, 98.2° (Epoch: 22 November)

Event Time Altitude Azimuth Distance (km) Brightness Sun altitude
Rises 17:21:02 0° 14° (NNE) 2,557 7.5 -14.4°
Reaches altitude 10° 17:23:06 10° 14° (NNE) 1,673 6.6 -14.8°
Maximum altitude 17:26:42 89° 297° (WNW) 490 4.0 -15.4°
Drops below altitude 10° 17:30:16 10° 196° (SSW) 1,660 7.0 -15.9°
Sets 17:32:19 0° 196° (SSW) 2,536 8.0 -16.3°
